{"data":{"norad_id":67219,"epoch":"2026-05-24T21:13:54.198048Z","epoch_age_seconds":84458,"freshness":"FRESH","line1":"1 67219U 25305A   26144.88465507  .00008363  00000+0  53143-3 0  9998","line2":"2 67219  45.0016 206.7129 0005122  14.5213 345.5809 15.09263264 23801","mean_motion":15.09263264,"eccentricity":0.0005122,"inclination_deg":45.0016,"raan_deg":206.7129,"arg_perigee_deg":14.5213,"mean_anomaly_deg":345.5809,"bstar":0.00053143,"rev_number":2380,"period_min":95.41078977723,"perigee_km":534.90726677639,"apogee_km":541.9926184404,"semimajor_km":6916.5869426084,"source":"CELESTRAK","updated_at":"2026-05-25T13:38:06.818688Z"}}